[[{"header":{"parameterUnit":"m.s-1","parameterCategory":1,"la1":30.2991,"la2":30.254,"lo1":-89.0895,"lo2":-89.0444,"dy":0.0017,"dx":0.0017,"nx":28,"ny":28,"refTime":"2026-03-05T09:00:00:Z","depth":0,"parameterNumber":2,"parameterNumberName":"U-component_of_WINDS"},"data":[0,0,0,0,0,0,0,0,0,0,0,0,0,0,0,0,0,0,0,0,0,0,0,0,0,0,0,0,0,0,0,0,0,0,0,0,0,0,0,0,0,0,0,0,0,0,0,0,0,0,0,0,0,0,0,0,0,0,-3.0516,-3.0517,0,-3.0587,-3.0588,-3.0588,-3.0561,-3.0559,-3.0557,-3.0556,-3.0633,-3.0636,-3.064,0,0,0,0,0,0,0,0,0,0,0,0,0,-3.0363,-3.0366,-3.0516,-3.0517,-3.0518,-3.0587,-3.0588,-3.0589,-3.0561,-3.0559,-3.0557,-3.0555,-3.0631,-3.0636,-3.064,0,0,0,0,0,0,0,0,0,0,0,0,0,-3.0432,-3.0367,-3.0516,-3.0512,-3.0513,-3.0586,-3.0588,-3.0589,-3.0561,-3.0559,-3.0556,-3.0554,-3.063,-3.0635,-3.0641,-3.0724,0,0,-3.0657,-3.0659,0,0,0,0,0,0,0,0,-3.0428,-3.0437,-3.0512,-3.0513,-3.0513,-3.0562,-3.0562,-3.0634,-3.0562,-3.0543,-3.0556,-3.0553,-3.0612,-3.0618,-3.0637,-3.0727,-3.0731,-3.0658,-3.0661,-3.0663,-3.0665,0,0,0,0,0,0,0,-3.0423,-3.0434,-3.0544,-3.0513,-3.0514,-3.0509,-3.0516,-3.0576,-3.0591,-3.0544,-3.0543,-3.0551,-3.0611,-3.0632,-3.0639,-3.0732,-3.0657,-3.0662,-3.0666,-3.0668,-3.0896,-3.0899,0,0,0,0,0,0,-3.0417,-3.043,-3.0542,-3.0546,-3.0463,-3.0514,-3.0522,-3.0549,-3.059,-3.0593,-3.0553,-3.055,-3.0624,-3.0633,-3.0641,-3.0742,-3.0663,-3.0668,-3.0671,-3.0893,-3.0897,-3.09,0,0,0,0,0,0,-3.0414,-3.0428,-3.0539,-3.0488,-3.0502,-3.0519,-3.055,-3.0552,-3.0572,-3.0596,-3.0599,-3.0571,-3.0622,-3.0634,-3.0704,-3.0744,-3.0671,-3.0676,-3.089,-3.0894,-3.0898,-3.0943,0,0,0,0,0,0,-3.041,-3.0427,-3.0457,-3.0489,-3.0504,-3.0598,-3.0553,-3.0555,-3.0581,-3.0577,-3.0614,-3.0618,-3.0621,-3.0696,-3.0709,-3.075,-3.068,-3.0886,-3.0892,-3.0897,-3.0938,-3.0948,-3.0957,0,0,0,0,0,-3.0404,-3.0467,-3.0458,-3.0472,-3.0542,-3.0601,-3.061,-3.0611,-3.0584,-3.0616,-3.0632,-3.0616,-3.0738,-3.0703,-3.0718,-3.0761,-3.0884,-3.089,-3.0896,-3.0933,-3.0946,-3.0957,0,0,0,0,0,0,-3.044,-3.0471,-3.0462,-3.0536,-3.0566,-3.0596,-3.0635,-3.0625,-3.0664,-3.0658,-3.0661,-3.0669,-3.0741,-3.0759,-3.0719,-3.0845,-3.0807,-3.0817,-3.083,-3.0842,-3.0852,-3.0845,-3.0684,0,0,0,0,0,-3.0457,-3.05,-3.0525,-3.0589,-3.0604,-3.0617,-3.0643,-3.0642,-3.0673,-3.0686,-3.0707,-3.0739,-3.0785,-3.0815,-3.0858,-3.0941,-3.0949,-3.0979,-3.0988,-3.0996,-3.1004,-3.105,-3.1063,-3.0921,-3.0921,-3.092,0,0,-3.0491,-3.0513,-3.054,-3.0596,-3.0619,-3.0665,-3.0628,-3.0678,-3.0713,-3.0694,-3.076,-3.0778,-3.0815,-3.0891,-3.0926,-3.0908,-3.1045,-3.1004,-3.101,-3.1014,-3.1058,-3.1071,-3.1083,-3.0925,-3.0924,-3.0923,0,0,-3.0577,-3.0598,-3.0653,-3.0677,-3.0712,-3.0721,-3.0735,-3.0767,-3.0777,-3.0844,-3.0831,-3.0874,-3.0952,-3.0979,-3.1003,-3.1103,-3.1091,-3.1118,-3.1166,-3.1212,-3.1223,-3.1233,-3.1268,-3.1281,-3.1126,-3.1126,-3.1126,0,-3.0615,-3.0682,-3.0683,-3.0735,-3.076,-3.0745,-3.0802,-3.0826,-3.0874,-3.0893,-3.0872,-3.0971,-3.0995,-3.1078,-3.1103,-3.1123,-3.114,-3.1112,-3.1221,-3.1231,-3.124,-3.1274,-3.1287,-3.1129,-3.1128,-3.1128,-3.1128,0,-3.0728,-3.0776,-3.0817,-3.0862,-3.0893,-3.0947,-3.0958,-3.099,-3.0987,-3.0999,-3.1069,-3.1097,-3.1146,-3.1167,-3.1165,-3.1251,-3.1238,-3.1219,-3.1181,-3.1257,-3.1289,-3.1302,-3.1133,-3.1132,-3.1131,-3.113,0,0,-3.0835,-3.0882,-3.0897,-3.0918,-3.0957,-3.0995,-3.105,-3.1097,-3.1124,-3.116,-3.1206,-3.1274,-3.1257,-3.1285,-3.1287,-3.1327,-3.1404,-3.1303,-3.1304,-3.132,-3.1501,-3.1514,-3.1529,-3.1397,-3.14,-3.1402,-3.1498,0,-3.0924,-3.1017,-3.1021,-3.1107,-3.1152,-3.114,-3.1188,-3.1219,-3.1233,-3.1274,-3.129,-3.1338,-3.1312,-3.1329,-3.1368,-3.1386,-3.144,-3.138,-3.1442,-3.1444,-3.1431,-3.1545,-3.1559,-3.1647,-3.151,-3.1512,-3.1514,0,-3.1038,-3.1075,-3.1166,-3.12,-3.1219,-3.1262,-3.1306,-3.1346,-3.1381,-3.1389,-3.1421,-3.1417,-3.1476,-3.1438,-3.152,-3.1478,-3.1505,-3.1518,-3.1522,-3.1526,-3.1482,-3.1552,-3.1676,-3.1689,-3.1534,-3.1532,-3.1531,0,-3.1106,-3.118,-3.1243,-3.1262,-3.1304,-3.1334,-3.1353,-3.1386,-3.1415,-3.1455,-3.1474,-3.1521,-3.1547,-3.1585,-3.1595,-3.1566,-3.1677,-3.164,-3.1686,-3.1686,-3.1708,-3.1706,-3.1836,-3.1728,-3.1727,-3.1727,-3.1727,0,-3.1203,-3.1259,-3.1275,-3.1314,-3.1377,-3.1382,-3.1445,-3.1463,-3.1493,-3.1537,-3.1531,-3.1573,-3.1585,-3.163,-3.1639,-3.1706,-3.1718,-3.1726,-3.1728,-3.1726,-3.1725,-3.1742,-3.1735,-3.1731,-3.173,-3.1729,-3.1729,0,-3.1289,-3.1301,-3.137,-3.1404,-3.1414,-3.1459,-3.149,-3.1528,-3.1542,-3.1598,-3.1612,-3.1634,-3.1687,-3.1702,-3.1766,-3.1772,-3.185,-3.1847,-3.1837,-3.1837,-3.1882,-3.1877,-3.2027,-3.2047,-3.1926,-3.1927,-3.1928,0,-3.1349,-3.1391,-3.143,-3.1458,-3.1478,-3.1524,-3.1553,-3.1562,-3.1593,-3.1638,-3.1672,-3.1724,-3.1765,-3.1851,-3.1874,-3.1923,-3.192,-3.197,-3.1928,-3.1925,-3.192,-3.1917,-3.1922,-3.1977,-3.1978,-3.1979,-3.198,0,-3.1454,-3.1458,-3.15,-3.1544,-3.1579,-3.1615,-3.165,-3.1674,-3.1688,-3.1724,-3.1777,-3.1809,-3.1874,-3.1926,-3.1977,-3.1999,-3.1992,-3.1994,-3.2007,-3.2004,-3.1996,-3.2001,-3.1857,-3.1989,-3.1988,-3.1988,-3.1987,-3.1987,-3.1528,-3.1565,-3.1599,-3.1646,-3.1673,-3.1706,-3.1744,-3.1763,-3.1807,-3.1859,-3.1863,-3.192,-3.1958,-3.2025,-3.205,-3.2097,-3.2082,-3.2102,-3.2106,-3.211,-3.2114,-3.1991,-3.2106,-3.2106,-3.2106,-3.2106,-3.2105,0,-3.1632,-3.1653,-3.1696,-3.1744,-3.1782,-3.1773,-3.1811,-3.1844,-3.1894,-3.1929,-3.197,-3.2032,-3.2083,-3.2112,-3.2163,-3.2195,-3.2194,-3.2209,-3.2205,-3.2211,-3.2124,-3.2107,-3.2209,-3.2209,-3.2209,-3.2209,-3.2209,-3.2209,-3.169,-3.1753,-3.1762,-3.184,-3.1862,-3.1917,-3.194,-3.1971,-3.1999,-3.2068,-3.2109,-3.2127,-3.216,-3.2214,-3.2262,-3.2269,-3.2288,-3.2304,-3.231,-3.2227,-3.2217,-3.2207,-3.219,-3.2308,-3.2309,-3.2393,-3.2393,-3.2394]},{"header":{"parameterUnit":"m.s-1","parameterCategory":1,"la1":30.2991,"la2":30.254,"lo1":-89.0895,"lo2":-89.0444,"dy":0.0017,"dx":0.0017,"nx":28,"ny":28,"refTime":"2026-03-05T09:00:00:Z","depth":0,"parameterNumber":3,"parameterNumberName":"V-component_of_WINDS"},"data":[0,0,0,0,0,0,0,0,0,0,0,0,0,0,0,0,0,0,0,0,0,0,0,0,0,0,0,0,0,0,0,0,0,0,0,0,0,0,0,0,0,0,0,0,0,0,0,0,0,0,0,0,0,0,0,0,0,0,0.8712,0.8713,0,0.887,0.8872,0.8873,0.9011,0.9013,0.9014,0.9016,0.9176,0.9179,0.9181,0,0,0,0,0,0,0,0,0,0,0,0,0,0.8527,0.853,0.8712,0.8714,0.8716,0.887,0.8872,0.8874,0.9011,0.9013,0.9015,0.9017,0.9175,0.9178,0.9182,0,0,0,0,0,0,0,0,0,0,0,0,0,0.8638,0.8531,0.8711,0.8803,0.8812,0.8869,0.8872,0.8875,0.9011,0.9013,0.9015,0.9018,0.9174,0.9178,0.9182,0.9161,0,0,0.9195,0.9197,0,0,0,0,0,0,0,0,0.8632,0.8645,0.8787,0.8796,0.8807,0.8923,0.8866,0.897,0.901,0.8935,0.9016,0.9019,0.909,0.9101,0.9126,0.9168,0.9175,0.9195,0.9198,0.92,0.9201,0,0,0,0,0,0,0,0.8624,0.8639,0.8774,0.8789,0.8801,0.8835,0.8854,0.8886,0.8997,0.8942,0.8952,0.8969,0.9096,0.9121,0.913,0.9177,0.9195,0.9199,0.9201,0.9203,0.9212,0.921,0,0,0,0,0,0,0.8602,0.8632,0.8769,0.8779,0.8724,0.8837,0.8857,0.8884,0.8997,0.9017,0.8967,0.8975,0.9113,0.9125,0.9136,0.9121,0.92,0.9204,0.9206,0.9215,0.9212,0.921,0,0,0,0,0,0,0.8598,0.8613,0.8763,0.8708,0.873,0.8837,0.8866,0.8886,0.8911,0.9016,0.9037,0.8973,0.9115,0.9131,0.9154,0.9128,0.9205,0.9209,0.9217,0.9214,0.9211,0.9088,0,0,0,0,0,0,0.8592,0.8611,0.8604,0.8707,0.8732,0.8778,0.8864,0.8887,0.8918,0.893,0.9027,0.9045,0.9118,0.9147,0.9158,0.9135,0.9212,0.922,0.9216,0.9212,0.9095,0.9081,0.9069,0,0,0,0,0,0.8585,0.8562,0.8603,0.8619,0.8726,0.8776,0.8791,0.8876,0.8915,0.891,0.8977,0.9042,0.9129,0.9149,0.9162,0.914,0.9222,0.9217,0.9212,0.9101,0.9083,0.9069,0,0,0,0,0,0,0.8453,0.8578,0.8624,0.8634,0.8694,0.8799,0.8795,0.8854,0.8903,0.8912,0.9015,0.9036,0.9048,0.9096,0.9116,0.9126,0.9184,0.9182,0.9095,0.9079,0.9066,0.9055,0.9216,0,0,0,0,0,0.8425,0.8456,0.8563,0.8561,0.8589,0.8686,0.8711,0.8771,0.8837,0.8863,0.8932,0.8993,0.9034,0.9059,0.9103,0.9102,0.9126,0.9093,0.908,0.9069,0.9066,0.9071,0.9058,0.9193,0.9193,0.9193,0,0,0.8368,0.844,0.8453,0.8537,0.859,0.862,0.8706,0.8734,0.8757,0.8867,0.8895,0.8947,0.9021,0.9033,0.9042,0.9074,0.9034,0.9062,0.9053,0.9056,0.9064,0.9051,0.904,0.9189,0.919,0.9191,0,0,0.8279,0.8335,0.8342,0.8393,0.8473,0.8538,0.8539,0.8636,0.8676,0.8705,0.8789,0.8817,0.8885,0.8936,0.897,0.89,0.8962,0.8911,0.8844,0.8847,0.8837,0.8828,0.8805,0.8795,0.8908,0.8907,0.8907,0,0.8198,0.8246,0.8337,0.836,0.8395,0.8496,0.8504,0.8549,0.8638,0.866,0.8694,0.8783,0.884,0.8866,0.8849,0.8873,0.8878,0.8902,0.8831,0.8823,0.8816,0.8795,0.8786,0.8901,0.8902,0.8902,0.8903,0,0.8143,0.8176,0.8171,0.8256,0.829,0.8304,0.8398,0.8421,0.8478,0.8539,0.8568,0.864,0.8701,0.8711,0.8766,0.8745,0.8762,0.8812,0.8873,0.8795,0.8778,0.877,0.8892,0.8894,0.8896,0.8897,0,0,0.7977,0.8113,0.811,0.815,0.8245,0.8272,0.8291,0.8351,0.837,0.8428,0.8448,0.8503,0.855,0.8589,0.8651,0.8653,0.8596,0.8704,0.8707,0.8683,0.8579,0.8542,0.8531,0.8637,0.8636,0.8635,0.8573,0,0.7906,0.7948,0.803,0.8045,0.8077,0.8173,0.8191,0.825,0.8308,0.8343,0.8406,0.8445,0.8503,0.8527,0.8534,0.8601,0.8577,0.8607,0.8657,0.8657,0.8637,0.8522,0.8483,0.8422,0.8567,0.8565,0.8565,0,0.7829,0.7882,0.7901,0.7996,0.8012,0.8026,0.8088,0.812,0.819,0.8232,0.8275,0.8343,0.8369,0.8423,0.846,0.8479,0.8504,0.8539,0.8539,0.8549,0.8608,0.853,0.8404,0.8396,0.8554,0.8555,0.8556,0,0.7708,0.7785,0.7807,0.7838,0.7948,0.7956,0.8002,0.8074,0.8105,0.8159,0.8181,0.8236,0.8267,0.8308,0.839,0.8421,0.8418,0.8479,0.8454,0.8452,0.8451,0.8451,0.8329,0.8463,0.8463,0.8463,0.8463,0,0.7622,0.763,0.7754,0.7768,0.778,0.7874,0.7883,0.7938,0.8002,0.8028,0.8113,0.8135,0.8241,0.8275,0.8338,0.836,0.8373,0.8408,0.8425,0.8402,0.8397,0.8421,0.8428,0.8461,0.8462,0.8462,0.8462,0,0.749,0.7574,0.7604,0.7706,0.7732,0.7736,0.7824,0.784,0.7902,0.7934,0.7947,0.8044,0.809,0.8174,0.8242,0.8285,0.8294,0.8323,0.8271,0.8282,0.8254,0.8256,0.8145,0.8136,0.8272,0.8271,0.827,0,0.7431,0.744,0.7542,0.7566,0.761,0.7646,0.7679,0.7771,0.7802,0.7883,0.789,0.7942,0.7989,0.8056,0.8133,0.8186,0.8217,0.8175,0.8226,0.8202,0.8219,0.8219,0.8221,0.8164,0.8162,0.816,0.8159,0,0.7316,0.7357,0.7402,0.746,0.7497,0.7547,0.7602,0.7616,0.7721,0.7751,0.7798,0.7834,0.7905,0.7956,0.802,0.8068,0.8131,0.8142,0.814,0.8117,0.8087,0.8105,0.8242,0.8145,0.8146,0.8147,0.8148,0.8148,0.7221,0.7234,0.7309,0.7355,0.7406,0.7455,0.7477,0.7542,0.7583,0.7649,0.77,0.7744,0.7814,0.7908,0.7951,0.7986,0.8016,0.8012,0.8012,0.801,0.8001,0.8079,0.7998,0.7999,0.7999,0.8,0.8,0,0.7114,0.7166,0.7208,0.7282,0.7319,0.7375,0.7439,0.7465,0.7503,0.7564,0.7608,0.7663,0.7713,0.7793,0.785,0.7862,0.7893,0.7874,0.7875,0.7886,0.797,0.7968,0.7849,0.7849,0.7849,0.7849,0.7849,0.7849,0.7062,0.7088,0.7137,0.7189,0.7242,0.7286,0.7317,0.7363,0.7413,0.747,0.7513,0.7565,0.7634,0.7696,0.7744,0.7766,0.7784,0.7756,0.7787,0.7865,0.7879,0.7893,0.7891,0.7759,0.7758,0.7701,0.77,0.77]}]]